www.pogodaiklimat.ru

Погода и климат >> Архив погоды >> Антарктида >> Casey Snyder Rocks


ПОГОДА в Casey Snyder Rocks

  • Прогноз погоды в Casey Snyder Rocks
  • Монитор погоды в Casey Snyder Rocks
  • Климат города

АРХИВ ПОГОДЫ в Casey Snyder Rocks

Время (UTC), дата Ветер
(напр.,м/с)
 
Видим.   Явления Облачность Т
(С)
Тd
(С)
f
(%)
Тe
(С)
Тes
(С)
Комфортность P
(гПа)
Po
(гПа)
Тmin
(С)
Tmax
(С)
R
(мм)
R24
(мм)
S
(см)
10 12.12 С 7
{9}
н/о н/о -3.2 974.1
11 12.12 С 7
{8}
н/о н/о -3.1 974.1
12 12.12 С 6
{7}
н/о н/о -3.1 974.1
13 12.12 С 6
{7}
н/о н/о -3.0
14 12.12 С 5
{6}
н/о н/о -3.5 972.9
15 12.12 С 6
{7}
н/о н/о -3.6 972.9
16 12.12 С 5
{6}
н/о н/о -4.0 971.8
18 12.12 0 н/о 971.8
20 12.12 0
{7}
н/о н/о -4.0 970.6
19 12.12 С 6
{8}
н/о н/о -3.9 971.8
21 12.12 С 5
{6}
н/о н/о -4.6 970.6
22 12.12 0 н/о 970.6
23 12.12 С 7
{9}
н/о н/о -3.5 970.6
00 13.12 С 8
{10}
н/о н/о -3.2 969.4
02 13.12 С 9
{12}
н/о н/о -2.3 969.4
01 13.12 С 8
{10}
н/о н/о -2.6 969.4
03 13.12 С 7
{9}
н/о н/о -2.3 970.6
04 13.12 С 5
{7}
н/о н/о -2.1 970.6
07 13.12 С 5
{6}
н/о н/о -1.9 971.8
08 13.12 С 8
{9}
н/о н/о -1.9 972.9
11 13.12 С 5
{6}
н/о н/о -2.0 972.9
12 13.12 С 6
{8}
н/о н/о -2.2 974.1
13 13.12 С 7
{9}
н/о н/о -2.0 974.1
14 13.12 С 9
{11}
н/о н/о -1.9 974.1
15 13.12 С 7
{9}
н/о н/о -2.3 974.1
17 13.12 С 9
{12}
н/о н/о -2.1 974.1
16 13.12 С 9
{12}
н/о н/о -1.9 974.1
19 13.12 С 8 н/о н/о -2.7 975.3
20 13.12 С 6
{8}
н/о н/о -2.9 976.5
21 13.12 С 6
{7}
н/о н/о -2.6 976.5
23 13.12 С 9
{13}
н/о н/о -1.8 977.7
22 13.12 С 8
{11}
н/о н/о -2.3 976.5
00 14.12 С 8
{10}
н/о н/о -1.5 977.7
01 14.12 С 10
{13}
н/о н/о -1.7 977.7
02 14.12 С 10
{12}
н/о н/о -1.6 978.8
03 14.12 С 8
{11}
н/о н/о -1.1 978.8
05 14.12 С 5
{6}
н/о н/о -0.6 978.8
04 14.12 С 5
{7}
н/о н/о -0.5 978.8
08 14.12 С 4
{6}
н/о н/о -0.4 978.8
10 14.12 С 5
{6}
н/о н/о -1.2 980.0
11 14.12 С 10
{13}
н/о н/о -2.2 980.0
12 14.12 С 9
{12}
н/о н/о -2.7 980.0
13 14.12 С 10
{12}
н/о н/о -3.7 980.0
14 14.12 С 10
{14}
н/о н/о -4.6 978.8
15 14.12 С 11
{14}
н/о н/о -5.8 978.8
16 14.12 С 11
{15}
н/о н/о -7.2 980.0
18 14.12 11
{15}
н/о н/о -8.4 980.0
21 14.12 С 10
{14}
н/о н/о -8.0 981.2
23 14.12 0
{15}
н/о
22 14.12 С 11
{14}
н/о н/о -8.3 981.2
00 15.12 С 11
{13}
н/о н/о -7.4 981.2
01 15.12 0
{9}
н/о 981.2
02 15.12 0
{8}
н/о н/о -4.6 982.4
06 15.12 С 3 н/о н/о -2.5 982.4
08 15.12 С 3
{4}
н/о н/о -2.3 982.4
09 15.12 С 5
{6}
н/о н/о -3.4 982.4
10 15.12 С 5
{6}
н/о н/о -3.6 982.4
11 15.12 0
{8}
н/о н/о -4.3 982.4
12 15.12 С 7
{8}
н/о н/о -4.1 982.4
13 15.12 С 8
{10}
н/о н/о -4.5 982.4
14 15.12 С 8
{11}
н/о н/о -4.5 983.5
15 15.12 С 9
{11}
н/о н/о -4.8 983.5
16 15.12 С 8
{10}
н/о н/о -4.8 983.5
18 15.12 С 8
{10}
н/о н/о -5.1 983.5
20 15.12 С 8
{10}
н/о н/о -5.5 983.5
21 15.12 С 8
{10}
н/о н/о -5.6 984.7
22 15.12 С 8
{11}
н/о н/о -5.6 983.5
23 15.12 0
{11}
н/о 984.7
00 16.12 С 8
{10}
н/о н/о -5.6 984.7
01 16.12 С 8
{10}
н/о н/о -5.4 984.7
02 16.12 С 8 н/о н/о -5.1 984.7
03 16.12 С 7
{9}
н/о н/о -4.8 983.5
07 16.12 С 6
{8}
н/о н/о -3.4 984.7
08 16.12 С 6
{8}
н/о н/о -3.3 984.7
09 16.12 С 6
{6}
н/о н/о -3.0 984.7
10 16.12 С 5
{6}
н/о н/о -3.0 984.7
11 16.12 0
{8}
н/о н/о -3.0 984.7
12 16.12 С 7
{8}
н/о н/о -2.8 984.7
13 16.12 С 8
{9}
н/о н/о -3.3 985.9
14 16.12 С 8
{9}
н/о н/о -3.2 985.9
15 16.12 С 7
{8}
н/о н/о -3.3 985.9
16 16.12 С 7
{8}
н/о н/о -3.4 985.9
17 16.12 0 н/о 985.9
18 16.12 0
{11}
н/о 986.3
19 16.12 С 10
{12}
н/о н/о -5.1 985.9
20 16.12 С 11
{13}
н/о н/о -5.7 985.9
21 16.12 С 11
{13}
н/о н/о -6.6 985.9
22 16.12 С 11
{13}
н/о н/о -7.5 985.9
23 16.12 С 12
{13}
н/о н/о -7.0 985.9
00 17.12 С 12
{13}
н/о н/о -5.1 984.7
01 17.12 С 12
{14}
н/о н/о -4.2 984.7
03 17.12 0 н/о 983.5
08 17.12 С 11
{16}
н/о н/о -1.8 981.2
09 17.12 С 14
{18}
н/о н/о -2.1 980.0
10 17.12 0 н/о н/о -2.2 980.0
11 17.12 С 16
{21}
н/о н/о -2.0 978.8
12 17.12 С 13
{17}
н/о н/о -1.9 980.0
13 17.12 С 14
{17}
н/о н/о -2.2 978.8
14 17.12 С 11
{16}
н/о н/о -2.8 978.8
15 17.12 С 14
{19}
н/о н/о -2.8 978.8
16 17.12 С 14
{19}
н/о н/о -2.8 977.7
17 17.12 С 14
{19}
н/о н/о -2.8 976.5
18 17.12 0 н/о н/о -2.9 977.7
19 17.12 С 15
{21}
н/о н/о -3.4 977.7
20 17.12 С 17
{22}
н/о н/о -3.0 977.7
22 17.12 С 17
{24}
н/о н/о -3.0 977.7
23 17.12 С 18
{25}
н/о н/о -2.6 977.7
00 18.12 С 17
{23}
н/о н/о -2.5 977.7
01 18.12 0
{25}
н/о н/о -2.1 976.5
03 18.12 С 21
{26}
н/о н/о -2.5 975.3
06 18.12 0
{24}
н/о н/о -1.2 978.8
07 18.12 С 14
{21}
н/о н/о -1.1 980.0
09 18.12 штиль 0
{16}
н/о н/о -0.7 980.0
10 18.12 0
{16}
н/о 980.0
11 18.12 С 13
{17}
н/о н/о -0.6
12 18.12 0 н/о 980.0
13 18.12 С 11
{16}
н/о н/о -0.7 980.0
15 18.12 С 10
{14}
н/о н/о -0.9 981.2
17 18.12 С 10
{12}
н/о н/о -1.5 981.2
18 18.12 С 10
{12}
н/о н/о -2.4 982.0
19 18.12 0
{12}
н/о 981.2
21 18.12 С 11
{13}
н/о н/о -2.6 982.4
22 18.12 С 8
{10}
н/о н/о -2.1 982.4
23 18.12 0
{8}
н/о 982.4
00 19.12 С 6
{8}
н/о н/о -1.1 982.4
01 19.12 С 6
{7}
н/о н/о -1.1 982.4
06 19.12 С 6 н/о н/о +1.3 982.4

 

Местоположение метеостанции Casey Snyder Rocks (Антарктида): широта -66.55 долгота 107.75 высота над уровнем моря 42 м.

В архиве по умолчанию представлена погода в Casey Snyder Rocks за последнюю неделю. Архивные данные за месяц целиком и за предыдущие месяцы, начиная с января 2011 года, Вы можете получить, выбрав интересующий диапазон дат из раскрывающегося списка и нажав кнопку "Ввод!".


*Определитесь, кто Вы:
робот инопланетянин человек

Внимание! Время в таблицах - всемирное. Для получения местного времени необходимо прибавить поправку, которая в Casey Snyder Rocks равна 0 ч.

Смотрите также архив погоды в соседних городах и на ближайших метеорологических станциях:

Погода в Casey (Антарктида) (126 км)
Погода в Casey Skiway South (Антарктида) (138 км)
Погода в Casey (Peterson air) (Антарктида) (152 км)
Погода в Wilkins Runway East (Антарктида) (167 км)
Погода в Oazic Bangera (Антарктида) (313 км)
Погода в Mirnyj (Антарктида) (650 км)
Погода в Dome C II (Антарктида) (1103 км)
Погода в Vostok (Антарктида) (1326 км)

Пояснения к столбцам:

Ветер - указаны скорость ветра в м/с - средняя за 10 мин, порывы в срок и между сроками (в фигурных скобках) и направление, откуда дует ветер: С - северный, СВ - северо-восточный, В - восточный, ЮВ - юго-восточный, Ю - южный, ЮЗ - юго-западный, З - западный, СЗ - северо-западный.
Видимость - горизонтальная дальность видимости в метрах или километрах. При видимости от 1 до 10 км при отсутствии осадков обычно наблюдается дымка, при ухудшении видимости до 1 км и менее - туман. В сухую погоду видимость может ухудшаться дымом, пылью или мглою.
Явления - указаны атмосферные явления, наблюдавшиеся в срок или в последний час перед сроком; фигурными скобками обозначены явления, наблюдавшиеся между сроками (за 1-3 часа до срока); квадратными скобками обозначены град или гололедные отложения с указанием их диаметра в мм.
Облачность - указаны через наклонную черту общая и нижняя облачность в баллах и высота нижней границы облаков в метрах; квадратными скобками обозначены формы облаков: Ci - перистые, Cs - перисто-слоистые, Cc - перисто-кучевые, Ac - высококучевые, As - высокослоистые, Sc - слоисто-кучевые, Ns - слоисто-дождевые, Cu - кучевые, Cb - кучево-дождевые. Подробнее классификацию облаков см. в Атласе облаков (PDF).
T - Температура воздуха - температура, измеренная на высоте 2 м над землей.
Td - Температура точки росы - температура, при понижении до которой содержащийся в воздухе водяной пар достигнет насыщения.
f - Относительная влажность воздуха - влажноcть воздуха, измеренная на высоте 2 м над землей.
Te - Эффективная температура - температура, которую ощущает одетый по сезону человек в тени. Характеристика душности погоды. При расчете учитывается влияние влажности воздуха и скорости ветра на теплоощущения человека.
Tes - Эффективная температура на солнце - температура, которую ощущает человек, с поправкой на солнечный нагрев. Характеристика знойности погоды. Зависит от высоты солнца над горизонтом, облачности и скорости ветра. Ночью, в пасмурную погоду, а также при ветре 12 м/с и более поправка равна нулю.
P - Атмосферное давление - приведенное к уровню моря атмосферное давление.
Po - Атмосферное давление - измеренное на уровне метеостанции атмосферное давление.
Tmin - Минимальная температура - минимум температуры воздуха на высоте 2 м над землей.
Tmax - Максимальная температура - максимум температуры воздуха на высоте 2 м над землей.
R - Количество осадков - Количество выпавших осадков за период времени, мм. При наведении курсора мыши на число - период времени, за который выпало указанное количество осадков.
R24 - Количество осадков - Количество выпавших осадков за 24 часа, мм.
S - Снежный покров - Высота снежного покрова, см. При наведении курсора мыши на число - состояние снежного покрова и степень покрытия местности в баллах.